Regional Weather Roundup
Issued by NWS

Home | Current Version | Previous Version | Graphics & Text | Print | Product List | Glossary On
Versions: 1 2 3 4 5 6 7 8 9 10 11 12 13 14 15 16 17 18 19 20 21 22 23 24 25 26 27 28 29 30 31 32 33 34 35 36 37 38 39 40 41 42 43 44 45 46 47 48 49 50
813
ASUS43 KLMK 290802
RWRKY
KENTUCKY REGIONAL WEATHER ROUNDUP
NATIONAL WEATHER SERVICE LOUISVILLE KY
400 AM EDT FRI JUL 29 2016

NOTE "FAIR" INDICATES FEW OR NO CLOUDS BELOW 12,000 FEET
WITH NO SIGNIFICANT WEATHER AND/OR OBSTRUCTIONS TO VISIBILITY.

KYZ001>023-026-027-061>063-070>075-290900-
WESTERN AND SOUTH CENTRAL KENTUCKY

CITY           SKY/WX    TMP DP  RH WIND       PRES   REMARKS
PADUCAH        PTCLDY    73  70  90 CALM      29.90F
HENDERSON      PTCLDY    72  68  88 CALM      29.89S
OWENSBORO      CLOUDY    73  72  97 CALM      29.90F
HOPKINSVILLE   NOT AVBL
BOWLING GREEN  CLOUDY    74  71  91 W3        29.94R
GLASGOW        NOT AVBL
$$

KYZ024-025-028>034-038-045-046-053-290900-
NORTH CENTRAL KENTUCKY

CITY           SKY/WX    TMP DP  RH WIND       PRES   REMARKS
LOUISVILLE/SDF PTCLDY    75  72  90 W7        29.91R
LOUISVILLE/LOU CLEAR     74  71  91 W3        29.92R
FORT KNOX      CLOUDY    72  72 100 SW2       29.92R
$$

KYZ035>037-039>044-047>052-055>060-089>105-290900-
NORTHEAST KENTUCKY

CITY           SKY/WX    TMP DP  RH WIND       PRES   REMARKS
LEXINGTON      PTCLDY    71  69  93 S5        29.94R
COVINGTON      PTCLDY    73  72  96 W6        29.92R FOG
FRANKFORT      CLEAR     73  70  90 CALM      29.92R
$$

KYZ054-064>069-076>088-106>120-290900-
SOUTHEAST KENTUCKY

CITY           SKY/WX    TMP DP  RH WIND       PRES   REMARKS
JACKSON        FOG       69  68  96 CALM      29.98R VSB 3/4
LONDON         CLOUDY    69  67  93 S3        29.98R
SOMERSET       MOCLDY    68  68 100 CALM      29.98R
MIDDLESBORO    CLOUDY    68  68 100 CALM      30.01R
MONTICELLO     PTSUNNY  N/A N/A N/A W9        29.99R
$$





USA.gov is the U.S. government's official web portal to all federal, state and local government web resources and services.